RH
89 99 94 98 99 80 56 29 27 34 38 40 42 40 38 39 41 39 68 70 55 63 41 30 27 15 14 16 15 15 15 15 15 15 15 15 15 16 17 16 16 17 19
86 99 93 98 99 75 63 36 26 36 48 50 45 49 46 42 39 41 47 60 56 47 28 29 18 16 15 15 16 16 16 17 17 17 17 18 19 20 20 21 22 23 24
83 92 88 98 98 80 70 47 35 44 56 60 56 57 52 45 40 38 34 42 33 28 25 21 16 15 16 17 17 18 18 18 18 19 20 21 22 23 24 25 26 27 29
83 85 90 98 97 88 75 50 42 52 58 61 63 65 61 53 46 44 34 25 25 30 21 18 16 16 17 18 18 19 19 20 21 22 23 24 25 26 27 28 30 33 35
90 90 93 96 98 98 75 58 46 49 59 66 66 68 70 63 56 52 42 33 24 21 20 16 16 17 17 18 19 20 20 21 22 23 24 26 27 28 30 32 34 36 36
98 94 93 97 99 100 86 68 45 60 57 63 70 68 73 73 69 62 51 41 31 29 26 20 18 19 18 19 20 20 21 22 23 24 25 26 29 31 34 36 37 37 37
100 96 94 97 97 98 88 69 60 53 75 72 71 86 86 79 70 67 60 46 34 31 27 22 20 20 19 20 20 21 22 22 23 24 25 26 28 33 36 38 38 39 40
99 98 96 96 96 99 98 77 59 68 75 81 71 90 99 94 80 68 62 50 40 32 26 22 18 19 19 20 20 21 21 22 23 24 25 27 29 33 36 39 40 41 40
100 100 99 97 97 98 98 82 64 52 55 78 67 47 88 82 87 74 56 45 39 29 26 18 17 17 18 19 20 21 22 22 23 24 26 27 29 32 36 38 39 39 38
92 100 99 100 99 98 99 89 74 58 48 47 70 49 36 29 60 63 54 40 35 24 21 16 15 15 17 18 20 21 22 23 24 25 26 28 29 32 34 36 38 39 38
100 88 100 100 100 100 99 94 83 69 52 44 39 43 39 30 25 24 32 35 29 22 17 15 14 14 15 17 19 21 22 23 24 25 27 29 30 31 34 36 35 36 36
93 100 99 97 100 100 100 99 90 79 66 50 43 35 26 22 20 21 18 20 17 18 16 14 14 14 14 16 18 20 22 23 24 26 27 29 31 32 32 34 33 33 33
100 94 96 94 94 97 99 100 96 89 84 65 46 37 29 26 20 17 16 15 16 18 16 14 13 13 14 15 17 18 20 22 24 25 28 30 31 32 31 32 32 30 28
98 86 88 94 94 97 95 98 99 97 94 93 85 59 34 33 29 22 16 14 14 15 16 13 13 13 14 14 16 17 19 21 23 25 27 30 32 32 32 32 30 27 27
100 100 96 90 87 82 86 92 96 98 100 98 98 96 76 40 35 33 20 16 15 14 14 14 13 13 14 14 15 16 18 20 22 24 27 30 32 32 31 28 26 26 27
99 100 100 99 99 87 86 90 74 98 100 94 92 96 88 56 50 40 30 18 16 16 17 16 14 14 14 14 15 17 18 19 21 24 28 30 31 30 28 26 26 28 29
93 99 97 100 100 89 98 96 95 67 97 96 99 97 98 75 65 65 44 22 17 17 16 16 17 16 15 15 16 17 19 20 22 25 28 30 29 26 25 26 28 30 31
98 100 98 99 100 97 93 96 97 96 86 95 98 99 99 74 55 60 50 30 21 19 18 18 17 17 16 18 20 18 20 22 23 26 27 27 25 25 26 28 29 30 31
99 98 100 100 90 100 95 96 91 99 99 100 99 89 97 87 67 58 56 44 27 22 20 18 20 17 18 20 21 21 21 23 25 24 24 24 25 27 28 28 28 30 38
100 90 95 99 98 100 98 84 94 100 100 97 99 86 98 89 87 83 62 50 35 27 21 22 22 18 19 20 17 23 23 22 22 22 24 25 25 27 27 27 37 43 51
100 92 90 94 100 97 99 100 99 99 92 100 99 98 100 95 95 82 56 49 37 31 22 25 25 20 19 19 18 20 21 22 24 24 26 25 26 26 32 47 50 57 59
100 100 83 92 98 98 98 100 100 99 100 99 100 98 100 100 100 98 73 58 38 28 24 23 26 22 21 21 21 22 23 23 25 24 25 26 26 39 57 64 64 65 65
100 100 73 78 94 100 99 98 100 98 89 99 100 100 99 98 100 100 85 71 54 37 26 21 25 27 38 37 34 30 24 24 24 26 26 26 52 67 72 70 69 66 62
100 100 95 85 88 100 99 99 99 100 91 98 99 99 94 98 100 96 64 60 59 44 34 25 27 33 31 28 24 23 24 25 25 26 27 53 70 75 71 68 65 64 62
99 100 100 89 99 99 95 100 100 100 92 99 100 100 98 98 100 99 93 63 62 50 42 32 30 27 25 25 22 22 24 24 26 27 49 76 77 72 67 64 64 63 66
100 100 100 85 96 96 95 99 100 100 98 99 100 100 98 100 100 100 100 99 79 63 64 70 49 30 25 25 22 23 25 26 28 47 81 80 73 73 68 65 65 66 68
Wind_Speed
48 46 43 40 37 32 27 25 25 25 23 21 18 18 18 16 15 14 17 17 15 14 11 10 10 9 9 9 9 10 10 10 11 12 13 13 13 14 14 14 14 15 15
52 50 47 44 38 34 30 27 27 28 26 23 21 19 18 17 16 15 16 16 15 13 11 10 9 8 8 7 7 8 9 9 10 11 11 11 12 12 12 12 12 12 13
55 52 49 46 41 36 32 29 30 29 27 25 22 21 19 18 17 16 17 16 15 13 11 10 8 8 7 7 7 6 7 8 9 9 9 10 10 10 11 11 12 13 13
58 55 52 49 45 39 36 33 35 34 31 28 25 22 20 19 18 17 16 15 16 15 13 10 9 8 7 7 6 5 5 6 6 7 7 8 9 9 9 10 10 11 12
61 58 55 52 47 42 41 38 40 37 36 32 27 24 21 20 19 18 17 14 14 13 13 12 10 9 7 7 6 4 4 3 3 4 5 6 7 7 8 9 11 12 13
63 61 59 56 50 45 43 41 43 41 37 36 32 28 25 23 21 20 18 17 15 14 13 12 11 10 9 8 8 6 4 2 1 3 4 4 5 6 8 10 11 11 12
67 64 63 58 54 50 46 45 47 44 42 38 37 31 27 25 24 23 22 20 18 17 15 14 13 12 11 9 8 8 6 3 0 2 4 5 6 7 8 10 11 11 12
71 65 66 62 58 55 50 48 49 49 46 44 41 35 23 24 28 28 26 24 23 21 19 17 15 14 13 11 9 6 5 4 2 1 3 5 6 7 8 9 10 11 13
53 62 74 67 62 60 55 53 53 52 52 48 43 28 16 15 31 31 30 28 27 25 23 20 18 17 15 14 11 9 7 6 4 4 5 6 7 8 9 10 11 13 15
40 40 64 77 64 62 56 56 54 53 52 53 50 45 26 17 21 19 33 32 30 28 26 24 22 20 18 16 14 12 10 8 7 7 7 7 8 10 11 12 13 15 17
32 48 46 60 64 63 58 56 56 56 53 53 52 50 34 22 19 18 23 36 34 32 29 27 24 23 20 18 16 14 12 11 10 9 8 9 9 11 12 14 15 16 18
30 34 48 47 53 62 63 62 58 56 55 53 52 48 47 37 30 25 19 29 34 31 31 29 28 26 23 21 18 17 16 14 12 11 11 11 11 12 13 15 18 19 20
39 48 45 42 39 55 65 62 64 58 57 54 50 46 44 41 30 25 18 16 25 32 29 31 29 27 25 22 21 20 18 16 14 13 13 13 13 14 15 16 19 21 22
42 40 45 48 53 52 50 39 60 50 59 54 45 44 43 43 38 27 22 17 16 21 32 27 31 29 28 24 22 21 20 18 16 15 15 15 15 16 16 17 20 23 24
41 50 46 42 41 37 35 32 39 60 56 45 38 43 41 43 43 37 25 19 16 14 19 26 28 28 28 26 25 23 20 21 18 17 17 16 16 17 18 19 22 25 27
30 53 53 47 45 44 44 40 31 39 53 42 42 43 43 47 46 41 34 23 18 13 9 11 18 26 21 28 27 24 24 21 19 17 18 18 17 17 19 21 24 26 28
32 44 48 41 42 45 50 48 46 43 54 53 48 45 46 50 48 44 35 28 23 19 16 15 11 18 24 21 29 26 23 21 18 18 18 18 18 18 20 23 26 27 29
38 43 50 50 44 46 49 51 51 52 54 56 50 48 48 45 41 37 41 35 29 23 20 18 15 15 19 20 20 24 24 20 18 17 18 17 18 20 21 24 27 29 30
37 39 55 49 46 49 52 53 52 53 55 56 49 43 44 45 44 43 39 41 34 27 22 18 17 15 16 19 14 20 22 18 16 16 17 18 20 21 23 26 28 30 30
38 43 44 40 36 46 51 53 51 52 51 51 52 42 48 47 43 42 42 41 40 31 25 21 19 17 15 14 14 15 16 14 15 16 18 19 22 23 24 27 29 28 31
36 47 38 42 43 42 51 55 54 53 52 56 52 47 50 47 45 38 39 41 41 37 30 26 24 19 20 18 15 14 13 15 17 19 19 21 23 24 25 26 28 30 30
34 43 44 42 42 43 48 50 54 55 51 55 51 48 51 44 44 38 38 37 40 41 36 31 27 24 19 16 13 11 14 17 20 20 21 20 21 23 25 27 29 28 29
32 46 47 44 46 49 51 49 54 53 51 53 50 47 43 42 41 35 38 39 38 41 37 33 30 27 26 23 21 23 21 20 20 23 21 22 21 24 26 26 26 25 23
27 41 46 45 47 52 49 54 52 53 50 51 51 48 43 44 40 34 36 38 38 40 40 36 32 26 26 22 21 21 20 21 22 22 22 22 21 23 22 22 23 20 19
26 33 45 44 47 51 52 55 50 50 49 52 50 44 43 43 39 37 38 40 41 41 40 36 33 30 27 28 25 25 22 22 21 22 22 20 22 19 18 20 18 13 24
21 29 41 44 48 48 46 55 51 49 51 50 50 46 41 37 40 39 37 39 45 47 45 44 42 36 32 26 24 23 21 21 21 20 19 17 16 14 12 15 16 23 25
Wind_Direction
199 198 202 201 201 204 202 198 195 189 184 181 177 174 170 171 171 166 157 152 150 144 142 137 129 122 112 107 101 92 84 77 71 68 65 59 55 52 50 44 38 34 30
202 201 202 203 201 204 204 199 197 192 186 184 179 177 179 177 177 175 167 161 156 156 155 147 136 128 119 109 94 91 89 82 73 68 65 62 57 53 48 41 35 29 21
204 201 205 203 203 203 203 197 195 193 189 185 184 182 185 183 184 183 182 170 168 166 162 157 151 143 134 119 104 92 86 81 73 66 63 58 50 44 40 32 24 20 17
206 205 207 206 203 201 200 197 193 191 190 188 186 185 187 188 188 190 190 183 177 173 171 169 166 161 153 140 130 118 104 93 86 72 61 52 42 33 29 24 19 15 12
207 208 209 207 203 202 200 197 192 195 190 187 189 187 188 191 193 196 196 194 187 184 181 177 175 171 171 156 144 132 119 104 88 76 59 46 37 25 17 13 9 6 7
207 210 210 207 204 204 201 197 194 192 194 189 187 188 190 193 196 200 203 199 195 190 185 182 181 180 184 180 167 161 154 158 68 43 33 24 18 16 10 7 3 6 8
208 210 210 207 205 205 205 199 195 192 190 193 187 185 189 195 199 203 207 206 203 200 198 194 192 193 194 193 196 181 175 181 299 2 352 348 354 355 1 360 0 359 358
210 213 210 209 206 203 204 201 197 190 194 193 191 178 179 197 205 206 209 210 209 208 207 206 203 203 204 200 207 219 215 205 210 293 314 325 333 342 343 350 351 348 348
203 209 213 209 205 206 205 204 201 200 194 193 199 187 172 203 204 209 210 212 213 212 212 211 209 210 211 214 211 216 232 241 247 263 288 305 319 324 331 335 336 338 338
234 207 208 211 207 207 208 206 206 205 203 197 196 204 203 204 185 205 213 213 216 215 215 216 215 215 215 217 219 223 229 242 253 263 277 293 304 314 319 324 327 330 332
228 222 209 219 214 210 209 211 207 206 208 207 203 202 204 205 199 196 206 212 217 217 217 219 220 220 220 221 222 227 231 237 246 256 271 282 294 299 309 317 321 326 329
233 202 212 212 197 204 210 211 211 210 212 212 210 209 210 209 207 204 206 214 220 219 219 220 222 222 222 222 224 228 232 238 246 256 267 276 285 295 305 313 315 322 327
225 216 220 217 223 220 212 216 208 214 212 214 214 214 218 220 224 218 216 221 223 224 222 225 227 227 227 227 228 231 237 242 249 259 268 277 286 296 298 308 312 318 322
212 225 211 221 222 219 219 223 215 227 220 217 216 220 224 224 225 227 225 225 225 226 226 227 230 228 228 228 231 233 237 244 248 256 265 274 284 291 299 304 308 312 315
213 211 205 189 189 189 195 201 218 219 219 220 225 225 217 227 228 226 225 223 232 230 228 230 233 232 229 228 230 233 238 242 247 254 263 272 281 288 296 302 305 309 315
229 206 193 199 201 204 210 213 213 220 215 217 219 224 219 222 226 228 223 221 224 236 233 234 232 233 230 230 227 232 236 240 245 253 261 270 278 286 294 299 305 309 311
233 232 223 210 218 213 212 210 208 203 211 213 216 225 225 226 223 223 220 220 220 229 236 244 240 231 227 229 227 227 236 239 245 253 261 270 278 286 294 300 302 307 310
234 228 222 226 225 221 214 213 214 210 211 215 220 227 229 223 228 226 223 222 225 227 232 240 247 236 230 224 225 227 234 236 243 253 261 270 279 287 295 299 302 306 308
223 225 221 223 222 224 219 218 216 220 218 220 224 229 230 226 225 224 223 223 224 229 232 232 239 226 220 218 226 227 226 235 243 252 262 272 282 289 294 298 302 305 306
213 222 224 218 228 231 225 221 219 220 223 227 230 230 229 228 229 227 224 223 223 226 228 227 227 219 213 216 229 225 225 235 244 253 264 275 283 288 296 299 301 304 309
208 224 228 234 235 235 230 227 225 225 225 228 227 232 231 230 231 229 225 223 221 222 221 223 224 217 215 212 217 225 233 234 247 256 267 280 285 291 295 298 303 307 310
210 214 219 231 229 236 240 235 229 230 230 228 229 235 233 235 235 229 228 228 228 222 219 221 219 216 216 217 213 243 247 248 249 261 273 279 286 293 296 302 304 308 306
213 210 219 224 235 236 235 240 235 229 236 235 235 229 232 236 234 228 225 226 224 228 227 225 220 231 245 248 251 250 248 248 256 262 274 280 287 295 298 304 307 304 305
217 204 212 218 227 234 237 236 235 226 235 235 235 231 237 231 229 226 222 221 218 222 222 222 230 245 248 245 242 239 239 243 252 264 271 275 290 296 303 304 305 308 314
224 204 209 212 224 229 236 237 234 223 231 234 235 231 231 233 231 230 224 222 219 217 219 220 228 231 233 236 241 242 241 247 258 265 270 275 288 297 306 308 310 321 322
229 214 208 209 222 227 236 233 228 223 229 228 229 227 231 233 225 228 232 229 221 222 220 223 219 226 231 235 239 242 247 255 258 263 272 276 284 305 310 311 312 320 325